Flag for Ireland Weather past 2 weeks in Dundalk, Ireland

Now
47 °F

Rain. Overcast.


Feels Like: 42 °F
Forecast: 52 / 60 °F
Wind: 10 mph from North

Location: Glenanne

Current Time: Sep 3, 2015 at 4:28:48 AM

Latest Report: Sep 3, 2015 at 3:00 AM


Visibility: 4 mi

Pressure: 30.11 "Hg

Humidity: 99%

Dew point: 47 °F

Location of DundalkLocation

Historic Weather in Dundalk — Graph

°F

Dundalk temperature yesterday

Maximum temperature yesterday: 54 °F (at 3:00 PM)
Minimum temperature yesterday: 47 °F (at 3:00 AM)
Average temperature yesterday: 50 °F

Past Weeks' High & Low Weather Summary

 TemperatureHumidityPressure
High68 °F (Aug 21, 3:00 PM)100% (Aug 19, 4:00 AM)30.19 "Hg (Aug 19, 4:00 AM)
Low44 °F (Aug 25, 3:00 AM)58% (Aug 30, 5:00 PM)29.26 "Hg (Aug 26, 7:00 AM)
Average55 °F91%29.80 "Hg
* Reported Aug 19 3:00 AM — Sep 3 3:00 AM, Dundalk, Weather by CustomWeather, © 2015

Note: Actual official high and low records may vary slightly from our data, if they occured in-between our weather recording intervals... More about our weather records

Advertising

Dundalk weather history for previous 24 hours

 ConditionsComfort  
Time TempWeatherWind HumidityBarometerVisibility
3:00 AM
Thu, Sep 3
47 °FRain. Overcast.10 mph99%30.11 "Hg4 mi
2:00 AM48 °FCool.9 mph93%30.11 "Hg28 mi
1:00 AM48 °FCool.13 mph94%30.11 "Hg28 mi
12:00 AM48 °FCool.13 mph100%30.12 "Hg28 mi
11:00 PM
Wed, Sep 2
48 °FCool.12 mph100%30.11 "Hg13 mi
9:00 PM49 °FCool.10 mph90%30.12 "Hg31 mi
8:00 PM49 °FCool.10 mph90%30.12 "Hg31 mi
7:00 PM52 °FCool.10 mph80%30.11 "Hg31 mi
6:00 PM52 °FCool.10 mph80%30.11 "Hg31 mi
5:00 PM51 °FRain showers. Cloudy.12 mph95%30.12 "Hg9 mi
4:00 PM50 °FLots of rain. Cloudy.12 mph96%30.13 "Hg4 mi
3:00 PM54 °FCool.14 mph83%30.12 "Hg25 mi
2:00 PM54 °FCool.13 mph83%30.12 "Hg25 mi
1:00 PM52 °FRain showers. Cloudy.13 mph85%30.14 "Hg17 mi
10:00 AM50 °FDrizzle. Cloudy.13 mph98%30.16 "Hg4 mi
9:00 AM49 °FCool.10 mph99%30.16 "Hg22 mi
8:00 AM48 °FCool.10 mph100%30.15 "Hg8 mi
7:00 AM48 °FCool.9 mph100%30.15 "Hg9 mi
6:00 AM48 °FFog.12 mph100%30.14 "Hg5 mi
4:00 AM48 °FFog.10 mph100%30.16 "Hg7 mi
Weather by CustomWeather, © 2015

See weather overviewHow to use our weather pages